CW6770 Weather Reports


time (UTC)temp
F
wind
direction
speed
knots
gust
knots
rain 1hr
in
rain 24hr
in
rain mn
in
humidity
%
barometer
mb
20260505140527 55 98 1.7 7.0 0.00 0.00 0.00 78 1012.1
20260505125028 54 169 1.7 7.0 0.00 0.00 0.00 79 1012.2
20260505124603 54 0 0.9 7.0 0.00 0.00 0.00 79 1012.1
20260505124103 53 0 0.9 8.7 0.00 0.00 0.00 79 1012.1
20260505123530 53 305 1.7 8.7 0.00 0.00 0.00 80 1012.2
20260505123054 53 327 0.9 7.0 0.00 0.00 0.00 80 1012.3
20260505122526 53 219 0.9 7.0 0.00 0.00 0.00 80 1012.2
20260505122029 53 232 0.9 7.0 0.00 0.00 0.00 80 1012.3
20260505121541 53 293 0.9 5.2 0.00 0.00 0.00 80 1012.1
20260505121030 53 346 0.9 6.1 0.00 0.00 0.00 80 1011.8
20260505120528 53 149 0.9 6.1 0.00 0.00 0.00 80 1011.9
20260505120047 52 269 0.9 7.8 0.00 0.00 0.00 80 1011.9
20260505115527 52 234 0.9 7.8 0.00 0.00 0.00 80 1011.7
20260505115027 52 219 0.9 7.0 0.00 0.00 0.00 80 1011.7
20260505114547 52 238 1.7 7.0 0.00 0.00 0.00 80 1011.7
20260505114027 52 0 0.9 4.3 0.00 0.00 0.00 80 1011.5
20260505113527 52 227 0.0 6.1 0.00 0.00 0.00 80 1011.3
20260505113041 52 130 0.0 6.1 0.00 0.00 0.00 80 1011.4
20260505112531 52 233 0.9 6.1 0.00 0.00 0.00 81 1011.4
20260505112028 52 0 0.0 4.3 0.00 0.00 0.00 81 1011.2
20260505111539 51 113 0.0 6.1 0.00 0.00 0.00 82 1011.2
20260505111027 51 0 0.0 6.1 0.00 0.00 0.00 82 1011.2
20260505110526 51 0 0.9 6.1 0.00 0.00 0.00 82 1011.2
20260505102031 48 0 0.0 2.6 0.00 0.00 0.00 85 1011.3
20260505101542 48 0 0.0 4.3 0.00 0.00 0.00 85 1011.1
20260505101027 47 0 0.0 4.3 0.00 0.00 0.00 85 1011.1
20260505100528 47 0 0.0 3.5 0.00 0.00 0.00 85 1011.1
20260505100041 46 0 0.0 4.3 0.00 0.00 0.00 85 1011.1
20260505095526 46 240 0.9 4.3 0.00 0.00 0.00 85 1011.1
20260505095028 46 240 0.0 6.1 0.00 0.00 0.00 85 1011.0
20260505094539 46 0 0.0 6.1 0.00 0.00 0.00 85 1010.9
20260505094026 46 242 0.0 4.3 0.00 0.00 0.00 85 1010.8
20260505093527 46 188 0.9 4.3 0.00 0.00 0.00 85 1010.9
20260505093037 46 0 0.0 3.5 0.00 0.00 0.00 85 1010.9
20260505092528 46 0 0.0 3.5 0.00 0.00 0.00 85 1010.7
20260505092027 46 0 0.0 3.5 0.00 0.00 0.00 84 1010.8
20260505091550 46 216 0.0 4.3 0.00 0.00 0.00 84 1010.8
20260505091028 46 177 0.0 4.3 0.00 0.00 0.00 84 1010.7
20260505090527 46 0 0.0 1.7 0.00 0.00 0.00 84 1010.9
20260505090037 46 0 0.0 0.9 0.00 0.00 0.00 83 1010.7
20260505085750 46 0 0.0 0.9 0.00 0.00 0.00 83 1010.8
20260505085029 46 0 0.0 0.9 0.00 0.00 0.00 83 1010.7
20260505084546 47 0 0.0 5.2 0.00 0.00 0.00 83 1010.7
20260505084026 47 188 0.0 5.2 0.00 0.00 0.00 83 1010.7
20260505083526 47 0 0.0 3.5 0.00 0.00 0.00 83 1010.8
20260505083112 47 0 0.0 3.5 0.00 0.00 0.00 83 1010.7
20260505082527 47 0 0.0 3.5 0.00 0.00 0.00 83 1010.7
20260505082027 47 224 0.0 0.9 0.00 0.00 0.00 83 1010.6
20260505081537 47 0 0.0 0.9 0.00 0.00 0.00 83 1010.4
20260505081028 47 0 0.0 0.9 0.00 0.00 0.00 83 1010.6
20260505080528 47 0 0.0 1.7 0.00 0.00 0.00 83 1010.7
20260505080038 47 0 0.0 1.7 0.00 0.00 0.00 83 1010.5
20260505075527 47 0 0.0 5.2 0.00 0.00 0.00 83 1010.6
20260505075032 47 0 0.0 6.1 0.00 0.00 0.00 83 1010.6
20260505074538 47 0 0.0 6.1 0.00 0.00 0.00 83 1010.4
20260505074027 47 0 0.0 2.6 0.00 0.00 0.00 83 1010.4
20260505073527 47 0 0.0 2.6 0.00 0.00 0.00 82 1010.6
20260505073051 47 0 0.0 1.7 0.00 0.00 0.00 82 1010.6
20260505072528 47 0 0.0 1.7 0.00 0.00 0.00 82 1010.5
20260505072027 47 0 0.0 1.7 0.00 0.00 0.00 82 1010.6
20260505071542 47 0 0.0 0.9 0.00 0.00 0.00 82 1010.6
20260505071027 48 0 0.0 2.6 0.00 0.00 0.00 82 1010.5
20260505070559 48 0 0.0 3.5 0.00 0.00 0.00 82 1010.4
20260505070529 48 0 0.0 3.5 0.00 0.00 0.00 82 1010.4
20260505070050 48 0 0.0 3.5 0.00 0.00 0.00 82 1010.3
20260505065526 48 223 0.0 3.5 0.00 0.00 0.00 82 1010.4
20260505065027 48 0 0.0 3.5 0.00 0.00 0.00 82 1010.4
20260505064537 48 0 0.0 2.6 0.00 0.00 0.00 82 1010.5
20260505064029 48 0 0.0 3.5 0.00 0.00 0.00 82 1010.3
20260505063527 48 0 0.0 3.5 0.00 0.00 0.00 82 1010.3
20260505063037 48 0 0.0 2.6 0.00 0.00 0.00 83 1010.2
20260505062527 48 267 0.0 5.2 0.00 0.00 0.00 83 1010.3
20260505062059 48 0 0.0 5.2 0.00 0.00 0.00 83 1010.2
20260505061544 48 183 0.0 4.3 0.00 0.00 0.00 84 1010.3
20260505061027 47 239 0.0 6.1 0.00 0.00 0.00 84 1010.2
20260505060528 47 0 0.0 6.1 0.00 0.00 0.00 85 1010.2
20260505060043 47 254 0.9 7.0 0.00 0.00 0.00 86 1010.2
20260505055527 47 0 0.0 7.0 0.00 0.00 0.00 86 1010.2
20260505055026 46 0 0.0 3.5 0.00 0.00 0.00 87 1010.2
20260505054541 46 0 0.0 2.6 0.00 0.00 0.00 86 1010.1
20260505054026 46 0 0.0 2.6 0.00 0.00 0.00 87 1010.2
20260505053529 46 0 0.0 3.5 0.00 0.00 0.00 87 1010.1
20260505053042 45 0 0.0 3.5 0.00 0.00 0.00 87 1010.0
20260505052527 45 0 0.0 2.6 0.00 0.00 0.00 87 1010.1
20260505052027 45 0 0.0 2.6 0.00 0.00 0.00 87 1010.1
20260505051537 44 219 0.0 0.0 0.00 0.00 0.00 87 1010.0
20260505051028 44 0 0.0 2.6 0.00 0.00 0.00 87 1010.1
20260505050527 44 0 0.0 2.6 0.00 0.00 0.00 87 1010.0
20260505041549 45 0 0.0 0.0 0.00 0.00 0.00 87 1010.1
20260505041025 45 0 0.0 0.0 0.00 0.00 0.00 87 1010.2
20260505040527 45 0 0.0 0.0 0.00 0.00 0.00 87 1010.1
20260505040048 45 0 0.0 0.0 0.00 0.00 0.00 87 1010.2
20260505035527 44 0 0.0 0.0 0.00 0.00 0.00 87 1010.2
20260505035026 44 0 0.0 0.0 0.00 0.00 0.00 87 1010.0
20260505034534 44 0 0.0 0.0 0.00 0.00 0.00 87 1010.0
20260505034027 44 0 0.0 0.0 0.00 0.00 0.00 86 1010.0
20260505033527 44 0 0.0 0.0 0.00 0.00 0.00 87 1010.1
20260505033041 44 0 0.0 0.0 0.00 0.00 0.00 87 1010.1
20260505032527 44 0 0.0 0.0 0.00 0.00 0.00 87 1010.1
20260505032026 44 0 0.0 0.0 0.00 0.00 0.00 86 1010.1
20260505031544 44 0 0.0 0.0 0.00 0.00 0.00 86 1010.1
20260505031026 44 0 0.0 0.0 0.00 0.00 0.00 86 1010.1
20260505030528 44 0 0.0 0.0 0.00 0.00 0.00 86 1010.0
20260505030038 44 0 0.0 0.0 0.00 0.00 0.00 86 1010.1
20260505025528 44 0 0.0 0.0 0.00 0.00 0.00 86 1010.0
20260505025027 44 0 0.0 0.0 0.00 0.00 0.00 86 1010.1
20260505024700 44 0 0.0 0.0 0.00 0.00 0.00 86 1010.1
20260505024538 44 0 0.0 0.0 0.00 0.00 0.00 86 1010.1
20260505024026 44 0 0.0 0.0 0.00 0.00 0.00 86 1010.3
20260505023527 44 0 0.0 0.0 0.00 0.00 0.00 85 1010.3
20260505023038 44 0 0.0 0.0 0.00 0.00 0.00 85 1010.3
20260505022527 44 0 0.0 0.0 0.00 0.00 0.00 85 1010.1
20260505022028 44 0 0.0 0.0 0.00 0.00 0.00 85 1010.0
20260505021542 44 0 0.0 0.0 0.00 0.00 0.00 85 1010.0
20260505021027 44 0 0.0 0.0 0.00 0.00 0.00 85 1010.0
20260505020527 44 0 0.0 0.0 0.00 0.00 0.00 84 1010.1
20260505020041 45 0 0.0 0.0 0.00 0.00 0.00 84 1010.1
20260505015527 45 0 0.0 0.0 0.00 0.00 0.00 84 1010.2
20260505015027 45 0 0.0 0.0 0.00 0.00 0.00 84 1010.0
20260505014559 45 0 0.0 0.0 0.00 0.00 0.00 84 1009.9
20260505014027 45 0 0.0 0.0 0.00 0.00 0.00 84 1010.0
20260505013527 45 0 0.0 0.0 0.00 0.00 0.00 83 1009.8
20260505013037 45 0 0.0 0.0 0.00 0.00 0.00 83 1009.8
20260505012527 45 0 0.0 0.0 0.00 0.00 0.00 83 1009.7
20260505012028 46 0 0.0 0.0 0.00 0.00 0.00 82 1009.7
20260505011535 46 0 0.0 0.0 0.00 0.00 0.00 82 1009.6
20260505011029 46 0 0.0 0.0 0.00 0.00 0.00 82 1009.5
20260505010527 46 0 0.0 1.7 0.00 0.00 0.00 82 1009.5
20260505010036 46 0 0.0 1.7 0.00 0.00 0.00 82 1009.4
20260505005527 46 0 0.0 1.7 0.00 0.00 0.00 82 1009.4
20260505005059 46 0 0.0 0.0 0.00 0.00 0.00 82 1009.5
20260505005027 46 0 0.0 0.0 0.00 0.00 0.00 82 1009.5
20260505004542 46 0 0.0 0.0 0.00 0.00 0.00 82 1009.4
20260505004025 46 0 0.0 0.0 0.00 0.00 0.00 81 1009.2
20260505003527 46 0 0.0 0.0 0.00 0.00 0.00 81 1009.2
20260505003038 47 0 0.0 0.0 0.00 0.00 0.00 81 1009.0
20260505002527 47 0 0.0 0.0 0.00 0.00 0.00 81 1009.1
20260505002028 47 0 0.0 0.0 0.00 0.00 0.00 80 1009.1
20260505001537 47 0 0.0 0.0 0.00 0.00 0.00 80 1009.0
20260505001027 47 0 0.0 0.0 0.00 0.00 0.00 79 1008.9
20260505000529 48 0 0.0 0.0 0.00 0.00 0.00 79 1008.8
20260505000048 48 0 0.0 0.0 0.00 0.00 0.00 78 1009.0
20260504235527 48 0 0.0 0.0 0.00 0.00 0.00 78 1008.8
20260504235028 48 0 0.0 0.9 0.00 0.00 0.00 78 1008.7
20260504234629 49 0 0.0 2.6 0.00 0.00 0.00 77 1008.7
20260504234547 49 0 0.0 2.6 0.00 0.00 0.00 77 1008.7
20260504234028 49 179 0.0 2.6 0.00 0.00 0.00 77 1008.5
20260504233528 49 0 0.0 2.6 0.00 0.00 0.00 77 1008.5
20260504233103 50 0 0.0 2.6 0.00 0.00 0.00 76 1008.2
20260504232526 50 0 0.0 2.6 0.00 0.00 0.00 76 1008.3
20260504232027 51 0 0.0 0.0 0.00 0.00 0.00 75 1008.2
20260504231543 52 0 0.0 0.0 0.00 0.00 0.00 74 1008.1
20260504231027 53 0 0.0 0.0 0.00 0.00 0.00 73 1008.1
20260504230527 54 0 0.0 0.0 0.00 0.00 0.00 73 1008.1
20260504230040 54 0 0.0 0.0 0.00 0.00 0.00 72 1008.1
20260504225527 55 0 0.0 0.0 0.00 0.00 0.00 71 1008.0
20260504225027 55 0 0.0 0.0 0.00 0.00 0.00 71 1008.0
20260504224540 56 0 0.0 0.0 0.00 0.00 0.00 70 1007.9
20260504224027 57 0 0.0 2.6 0.00 0.00 0.00 68 1007.8
20260504223527 57 0 0.0 2.6 0.00 0.00 0.00 67 1007.7
20260504223054 58 0 0.0 0.9 0.00 0.00 0.00 68 1007.7
20260504222756 59 0 0.0 5.2 0.00 0.00 0.00 66 1007.8
20260504222025 59 0 0.0 5.2 0.00 0.00 0.00 65 1007.9
20260504221542 59 0 0.0 5.2 0.00 0.00 0.00 64 1007.8
20260504221027 59 190 0.0 6.1 0.00 0.00 0.00 66 1008.0
20260504220528 59 0 0.0 6.1 0.00 0.00 0.00 67 1007.7
20260504220041 59 0 0.0 2.6 0.00 0.00 0.00 67 1007.6
20260504215528 59 0 0.0 2.6 0.00 0.00 0.00 65 1007.4
20260504215028 60 0 0.0 2.6 0.00 0.00 0.00 63 1007.2
20260504214538 61 0 0.0 1.7 0.00 0.00 0.00 63 1007.2
20260504214026 61 0 0.0 7.0 0.00 0.00 0.00 63 1007.3
20260504213530 61 0 1.7 7.0 0.00 0.00 0.00 63 1007.2
20260504213049 61 218 0.0 2.6 0.00 0.00 0.00 65 1007.3
20260504212528 60 218 0.0 6.1 0.00 0.00 0.00 64 1007.3
20260504212028 61 0 0.9 6.1 0.00 0.00 0.00 63 1007.3
20260504211537 61 0 0.9 6.1 0.00 0.00 0.00 62 1007.4
20260504211025 62 250 0.9 5.2 0.00 0.00 0.00 63 1007.4
20260504210525 61 0 0.9 6.1 0.00 0.00 0.00 63 1007.2
20260504210043 61 0 0.0 6.1 0.00 0.00 0.00 63 1007.2
20260504205528 61 161 0.0 7.0 0.00 0.00 0.00 63 1007.2
20260504205030 61 0 1.7 7.0 0.00 0.00 0.00 63 1007.3
20260504204545 62 210 0.0 6.1 0.00 0.00 0.00 62 1007.4
20260504204033 62 247 0.9 6.1 0.00 0.00 0.00 61 1007.3
20260504203531 62 182 1.7 6.1 0.00 0.00 0.00 63 1007.0
20260504203053 62 232 0.0 3.5 0.00 0.00 0.00 63 1007.2
20260504202530 62 190 0.0 8.7 0.00 0.00 0.00 65 1007.2
20260504202029 61 246 2.6 8.7 0.00 0.00 0.00 63 1007.2
20260504201538 61 189 0.9 4.3 0.00 0.00 0.00 64 1007.2
20260504201032 61 0 0.0 8.7 0.00 0.00 0.00 66 1007.2
20260504200527 61 288 1.7 8.7 0.00 0.00 0.00 66 1007.2
20260504200038 60 146 1.7 6.1 0.00 0.00 0.00 67 1007.2
20260504195529 60 0 0.9 4.3 0.00 0.01 0.00 66 1007.2
20260504195028 60 0 0.0 6.1 0.00 0.01 0.00 71 1007.4
20260504194543 59 189 0.0 6.1 0.00 0.01 0.00 71 1007.4
20260504194029 58 190 0.0 5.2 0.00 0.01 0.00 71 1007.3
20260504193529 58 228 0.9 5.2 0.00 0.01 0.00 72 1007.3
20260504193040 57 260 0.9 6.1 0.00 0.01 0.00 72 1007.4
20260504192528 57 232 1.7 6.1 0.00 0.01 0.00 73 1007.5
20260504192032 56 257 0.0 7.0 0.00 0.01 0.00 75 1007.6
20260504191538 55 213 0.9 7.0 0.00 0.01 0.00 75 1007.7
20260504191028 55 227 0.9 7.0 0.00 0.01 0.00 75 1007.8
20260504190531 55 0 0.0 7.0 0.00 0.01 0.00 77 1007.7
20260504190040 54 246 0.9 7.0 0.00 0.01 0.00 77 1007.8
20260504185530 53 170 0.9 7.0 0.00 0.03 0.00 76 1007.9
20260504185030 53 211 0.0 3.5 0.00 0.03 0.00 77 1008.1
20260504184539 53 227 0.9 6.1 0.00 0.03 0.00 76 1008.2
20260504184030 53 246 1.7 6.1 0.00 0.03 0.00 76 1008.3
20260504183528 53 211 0.9 3.5 0.00 0.03 0.00 75 1008.4
20260504183037 53 221 0.9 3.5 0.00 0.03 0.00 73 1008.3
20260504182530 53 221 0.0 3.5 0.00 0.03 0.00 72 1008.5
20260504182051 54 221 0.0 3.5 0.00 0.03 0.00 71 1008.4
20260504181545 54 0 0.0 7.8 0.00 0.03 0.00 69 1008.4
20260504181029 54 0 0.9 7.8 0.00 0.03 0.00 69 1008.3
20260504180531 55 0 2.6 7.8 0.00 0.03 0.00 67 1008.1
20260504180041 55 252 0.0 6.1 0.00 0.03 0.00 68 1008.1
20260504175527 54 249 0.9 6.1 0.00 0.09 0.00 68 1007.9
20260504175029 54 234 1.7 6.1 0.00 0.09 0.00 69 1008.0
20260504174541 54 241 1.7 6.1 0.00 0.09 0.00 69 1007.9
20260504174031 54 257 0.0 6.1 0.00 0.09 0.00 71 1007.8
20260504173527 53 256 0.9 6.1 0.00 0.09 0.00 72 1007.8
20260504173038 52 236 0.9 6.1 0.00 0.09 0.00 73 1007.8
20260504172527 52 239 0.0 6.1 0.00 0.09 0.00 74 1007.8
20260504172029 51 211 0.9 6.1 0.00 0.09 0.00 74 1007.6
20260504171545 51 0 0.0 9.6 0.00 0.09 0.00 74 1007.5
20260504171028 52 0 0.9 9.6 0.00 0.09 0.00 72 1007.6
20260504170527 53 197 0.9 9.6 0.00 0.09 0.00 69 1007.7
20260504151059 56 215 0.9 6.1 0.00 0.21 0.00 56 1009.1
20260504151027 56 215 0.9 6.1 0.00 0.21 0.00 56 1009.1
20260504150528 55 289 0.0 6.1 0.00 0.21 0.00 56 1009.0